Погода в Львове

Погода в Львове : погода сейчас, прогноз погоды и архив. Всё, что Вы хотите узнать о погоде в Львове!

Поиск расширенной информации на нашем сайте:

Другие новости

Новости СМИ2

Главная страница сайта

Новости сайта

03.07.2017

Напоминаем, что на нашем специализированном сайте Метеоцентр.Азия вы можете получить высокодетализированные автоматические прогнозы погоды по пунктам России, СНГ и мира в авиационном формате (включающие направление и скорость ветра, видимость, явления погоды, количество и форму облачности, нижнюю и верхнюю границу облачности).

Рекомендуем: Заливка фундамента в Калуге облицовка камнем фундамента дома Калуга.

Погода в Львове - сегодня

Время (UTC), дата Ветер
(°,м/с) 
Видим.   Явления Облачность Т
(°С)
Тd
(°С)
f(%) Тe
(°С)
Pmin
(гПа)
dP
(гПа)
Po
(мм)
O2
(г/м3)
Тmin Tmax R s Состояние
почвы
18 13.12.17 тихо ()   4000 м  дымка{ливн. осадки}  10/10 50 м 
[St]
+0.1 -0.7 94 1015.9  -1.5  732  295    +0.7     
21 13.12.17 тихо ()   0300 м  туман  ?/?  
-2.9 -3.6 95 -3  1013.8  -2.4  730  298           
00 14.12.17 тихо ()   5000 м  дымка{туман}  10/10 120 м 
[St]
-1.1 -1.8 95 -1  1011.1  -2.4  728  295           
03 14.12.17 тихо ()   10 км    ясно 
-1.9 -2.4 96 -2  1008.2  -2.9  726  295           
06 14.12.17 160 (Ю) 10 км    8/8 1020 м 
[Sc]
-0.9 -2.2 91 -3  1005.4  -2.5  724  293  -3.2      равномерный
мокрый или
старый снег
100% 
09 14.12.17 180 (Ю) 10 км    8/8 1230 м 
[Sc]
+2 -0.7 82 -1  1004.1  -0.8  724  289           
12 14.12.17 200 (Ю) 10 км    8/4 1000 м средняя 
[Sc|Ac trans]
+3.7 +0.1 77 +3  1001.8  -2  722  287           
15 14.12.17 230 (ЮЗ) 10 км    8/0 средняя 
[Ac trans]
+4.3 +0.5 76 +2  1002.9  1.1  723  287           
18 14.12.17 230 (ЮЗ) 10 км    9/0 средняя 
[Ac trans]
+4.3 +0.2 75 +3  1003  0.1  723  287    +4.6       
21 14.12.17 240 (ЮЗ) 10 км    6/0 верхняя 
[Ci fib]
+3.5 -0.8 73 +1  1004.5  1.3  724  288           
00 15.12.17 240 (ЮЗ) 10 км    5/0 верхняя 
[Ci fib]
+1.7 -1.7 78 +2  1004.3  -0.4  724  290           
03 15.12.17 150 (ЮВ) 10 км    6/0 средняя 
[Ac trans]
-0.6 -1.8 92 -3  1004.3  -0.3  724  292           
06 15.12.17 130 (ЮВ) 10 км    10/10 1230 м 
[Sc]
+2.1 -1.5 77 +1  1003.2  -0.7  723  289  -1.6         
09 15.12.17 130 (ЮВ) 10 км    10/0 средняя 
[Ac As]
+3.4 -0.6 75 +2  1002  -1  722  287           
12 15.12.17 190 (Ю) 10 км  {дождь}  9/4 1000 м средняя 
[Sc|Ac trans]
+6.3 +2 74 +4  999.9  -1.6  721  284      0.6     
15 15.12.17 200 (Ю) 10 км    10/6 1020 м средняя 
[Sc|Ac As]
+6.8 +2 71 +5  1000.2  0.4  721  283           
18 15.12.17 180 (Ю) 10 км  слаб. дождь  10/10 600 м 
[Ns]
+5.8 +2.5 79 +4  1001  0.6  722  284    +6.9  0.6     
21 15.12.17 180 (Ю) 10 км  {дождь}  8/8 960 м 
[Sc]
+4.7 +2.8 87 +6  1001.7  0.5  722  286           
00 16.12.17 010 (С) 10 км  {дождь}  10/10 630 м 
[Sc]
+4.5 +0.4 75 +5  1001.8  0.1  722  286           
03 16.12.17 360 (С) 2300 м  слаб. ливневой снег{дождь}  10/10 210 м кучево-дожд. 
[Cb cap]
+1.4 -0.2 89 +1  1000.1  -2.1  721  289           
06 16.12.17 330 (СЗ) 0800 м  ливневой снег{дождь}  10/10 50 м кучево-дожд. 
[Cb cap]
+0.2 -0.3 96 +1  1000.2  721  290  +0.2       
09 16.12.17 320 (СЗ) 3000 м  слаб. ливневой снег  10/10 60 м кучево-дожд. 
[Cb cap]
+0.3 -0.2 96 +1  1000.7  0.5  721  290           
12 16.12.17 290 (З) 1500 м  ливневой снег [диам. отлож. мокр. снега 27 мм]  10/10 60 м кучево-дожд. 
[Cb cap]
+0.3 -0.2 96 +1  1001.5  0.7  722  290           
15 16.12.17 290 (З) 1100 м  ливневой снег  10/10 100 м кучево-дожд. 
[Cb cap]
+0.1 -0.5 96 -1  1005  3.4  724  292           
18 16.12.17 290 (З) 2900 м  слаб. ливневой снег  10/10 100 м кучево-дожд. 
[Cb cap]
+0 -0.3 98 -2  1008.7  3.5  727  293    +0.5  12     
Время (UTC), дата Ветер
(°,м/с) 
Видим.   Явления Облачность Т
(°С)
Тd
(°С)
f(%) Тe
(°С)
Pmin
(гПа)
dP
(гПа)
Po
(мм)
O2
(г/м3)
Тmin Tmax R s Состояние
почвы

Для получения пояснительной информации подведите курсор к названию столбца.

ПОГОДА в Львове - архив

Всё, что Вы хотите узнать о погоде в Львове - удобно и подробно!

Выберите нужную дату (начиная с 1 января 2015* года) и нажмите кнопку "Найти".
Будут отображены архивные сводки погоды по пункту Львов, начиная с указанной даты.


Отображать данные в формате CSV (для использования в таблицах Excel)


Внимание! Наш архив погоды предназначен исключительно для личного некоммерческого использования в познавательных целях. Если Вам необходимы официальные справки о состоянии погоды (для производственных, юридических, коммерческих и т.п. целей), обращайтесь в органы Росгидромета.

*Примечание: данная дата относится к архиву по метеостанциям СССР (Россия, СНГ, Балтия).
Архив по метеостанциям Зарубежной Европы и Азии (кроме Китая) хранится 10 дней, по другим регионам земного шара (Китай, Африка, Америка, Австралия, Океания) - 1 день.

Львов - район местоположения метеостанции


Название, широта, долгота, высота метеостанции:
Львов 49.8°ш. 23.9°д. 323 м над ур. моря [Украина]

Дополнительная информация

В oтличие oт бoльшинства пoгoдных сайтoв мы публикуем пoдрoбную метеoинфoрмацию в детальнoм прoфессиoнальнoм фoрмате.

Характеристики температуры и влажнoсти вoздуха измеряются на высoте 2 м в тени вдали oт зданий и деревьев.
Скoрoсть ветра измеряется на высoте 10 м (на урoвне рoста челoвека скoрoсть ветра ниже в 1.5-2 раза). Если метеoстанция нахoдится в гoрoде или в лесу, тo скoрoсть ветра занижена на 2-4 м/с пo сравнению с oткрытым местoм. Скoрoсть ветра над акватoриями крупных рек и oзёр, а также на вершинах хoлмoв на 2-5 м/с выше, чем в oбычных услoвиях.
Атмoсфернoе давление в разных тoчках местнoсти мoжет значительнo oтличаться oт давления на метеoстанции, в зависимoсти oт услoвий рельефа (при пoдъёме на 10 м давление пoнижается примернo на 1 мм рт.ст.).